Location: Unspecified
(0.0000°N, 0.0000°E)
Time: 21:45:12
(UTC+00:00)

Vanguard 1 - Pass Details

Date: 18 June 2025
Orbit: 649 x 3822 km, 34.2° (Epoch: 12 July)

Event Time Altitude Azimuth Distance (km) Brightness Sun altitude
Rises 19:45:56 0° 287° (WNW) 7,407 15.9 -23.9°
Reaches altitude 10° 19:52:18 10° 279° (W) 5,941 15.0 -25.3°
Maximum altitude 20:06:14 32° 223° (SW) 3,151 12.7 -28.4°
Enters shadow 20:11:47 21° 179° (S) 3,144 12.3 -29.6°
